Location: Staunton
(38.1490°N, 79.0720°W)
Time: 14:47:15
(UTC-04:00)

ISS - Pass Details

Date: 22 July 2017
Orbit: 400 x 408 km, 51.6° (Epoch: 21 July)

Event Time Altitude Azimuth Distance (km) Brightness Sun altitude
Rises 04:31:57 0° 317° (NW) 2,314 0.0 -16.7°
Reaches altitude 10° 04:34:14 10° 330° (NNW) 1,454 -0.9 -16.4°
Maximum altitude 04:37:04 27° 30° (NNE) 821 -1.5 -16.0°
Drops below altitude 10° 04:39:53 10° 90° (E) 1,452 -0.3 -15.6°
Sets 04:42:10 0° 103° (ESE) 2,310 0.5 -15.2°
